Location: Ikejouine
(32.5142°N, 5.4699°W)
Time: 19:15:16
(UTC+00:00)

Cosmos 2181 Rocket - Pass Details

Date: 09 April 2020
Orbit: 952 x 1014 km, 82.9° (Epoch: 27 May)

Event Time Altitude Azimuth Distance (km) Brightness Sun altitude
Exits shadow 21:12:42 25° 206° (SSW) 1,845 5.3 -29.2°
Maximum altitude 21:16:20 60° 278° (W) 1,109 4.4 -29.8°
Drops below altitude 10° 21:22:27 10° 357° (N) 2,708 6.7 -30.9°
Sets 21:24:59 0° 2° (N) 3,651 7.4 -31.3°
